This is the latest recevied weather packets stored in our database for station/object WA7ABU-29. If no packets are shown the sender has not sent any weather packets the latest 10 day(s).
| Time | Temp. | Humidity | Pressure | Rain* | Wind** | Luminosity | Snow |
|---|---|---|---|---|---|---|---|
| 1777649167 | 10.56° C | 88% | 998.6 hPa | 0 mm | - | - | - |
| 1777648646 | 10° C | 89% | 998.6 hPa | 0 mm | - | - | - |
| 1777647220 | 10° C | 89% | 998.6 hPa | 0 mm | - | - | - |
| 1777646549 | 9.44° C | 90% | 998.6 hPa | 0 mm | - | - | - |
| 1777645538 | 9.44° C | 91% | 998.6 hPa | 0 mm | - | - | - |
| 1777645414 | 9.44° C | 90% | 998.3 hPa | 0 mm | - | - | - |
| 1777644886 | 9.44° C | 91% | 998.6 hPa | 0 mm | - | - | - |
| 1777644204 | 9.44° C | 91% | 998 hPa | 0 mm | - | - | - |
| 1777643564 | 8.89° C | 92% | 998 hPa | 0 mm | - | - | - |
| 1777642788 | 8.89° C | 92% | 998 hPa | 0 mm | - | - | - |
| 1777642293 | 8.33° C | 92% | 998 hPa | 0 mm | - | - | - |
| 1777640617 | 8.89° C | 91% | 998 hPa | 0 mm | - | - | - |
| 1777640347 | 8.89° C | 90% | 998 hPa | 0 mm | - | - | - |
| 1777639967 | 8.89° C | 90% | 997.6 hPa | 0 mm | - | - | - |
| 1777637864 | 9.44° C | 87% | 997.6 hPa | 0 mm | - | - | - |
| 1777637616 | 9.44° C | 87% | 997.6 hPa | 0 mm | - | - | - |
| 1777636594 | 10° C | 84% | 997.3 hPa | 0 mm | - | - | - |
| 1777634875 | 11.11° C | 83% | 997.3 hPa | 0 mm | - | - | - |
| 1777634493 | 11.11° C | 83% | 997.3 hPa | 0 mm | - | - | - |
| 1777633007 | 11.11° C | 83% | 997 hPa | 0 mm | - | - | - |
| 1777632862 | 11.11° C | 84% | 997.3 hPa | 0 mm | - | - | - |
| 1777632459 | 11.11° C | 84% | 997.3 hPa | 0 mm | - | - | - |
| 1777632335 | 11.11° C | 84% | 997.3 hPa | 0 mm | - | - | - |
| 1777631931 | 10.56° C | 85% | 997.3 hPa | 0 mm | - | - | - |
| 1777631528 | 10.56° C | 85% | 997.3 hPa | 0 mm | - | - | - |
* Rain latest hour (hover to see other rain measurements)
** Current wind speed in m/s (hover to see current wind gust speed)